Regional Weather Roundup
Issued by NWS

Home | Current Version | Previous Version | Text Only | Print | Product List | Glossary Off
Versions: 1 2 3 4 5 6 7 8 9 10 11 12 13 14 15 16 17 18 19 20 21 22 23 24 25 26 27 28 29 30 31 32 33 34 35 36 37 38 39 40 41 42 43 44 45 46 47 48 49 50

000
ASUS43 KLMK 270402
RWRKY
KENTUCKY REGIONAL WEATHER ROUNDUP
NATIONAL WEATHER SERVICE LOUISVILLE KY
1100 PM EST SUN FEB 26 2017

NOTE "FAIR" INDICATES FEW OR NO CLOUDS BELOW 12,000 FEET
WITH NO SIGNIFICANT WEATHER AND/OR OBSTRUCTIONS TO VISIBILITY.

KYZ001>023-026-027-061>063-070>075-270500-
WESTERN AND SOUTH CENTRAL KENTUCKY

CITY           SKY/WX    TMP DP  RH WIND       PRES   REMARKS
PADUCAH        CLOUDY    50  21  32 S5        30.15R
HENDERSON      CLOUDY    45  25  45 CALM      30.15S
OWENSBORO      MOCLDY    46  24  42 E3        30.16S
HOPKINSVILLE   FAIR      48  23  38 CALM      30.16R
BOWLING GREEN  CLOUDY    46  21  37 CALM      30.16F
GLASGOW        NOT AVBL
$$

KYZ024-025-028>034-038-045-046-053-270500-
NORTH CENTRAL KENTUCKY

CITY           SKY/WX    TMP DP  RH WIND       PRES   REMARKS
LOUISVILLE/SDF CLOUDY    45  17  32 SE5       30.17S
LOUISVILLE/LOU CLOUDY    45  18  34 CALM      30.17S
FORT KNOX      MOCLDY    44  22  42 CALM      30.14F
$$

KYZ035>037-039>044-047>052-055>060-089>105-270500-
NORTHEAST KENTUCKY

CITY           SKY/WX    TMP DP  RH WIND       PRES   REMARKS
LEXINGTON      CLOUDY    43  18  36 SE3       30.18S
COVINGTON      CLOUDY    40  19  43 S6        30.16R
FRANKFORT      CLOUDY    42  21  43 SE5       30.17S
$$

KYZ054-064>069-076>088-106>120-270500-
SOUTHEAST KENTUCKY

CITY           SKY/WX    TMP DP  RH WIND       PRES   REMARKS
JACKSON        FAIR      42  15  33 S3        30.20S
LONDON         FAIR      36  23  59 CALM      30.20S
SOMERSET       FAIR      37  21  52 CALM      30.21F
MIDDLESBORO    MOCLDY    34  27  76 CALM      30.24S
MONTICELLO     MOCLDY    41  25  53 N8        30.21S
$$





USA.gov is the U.S. government's official web portal to all federal, state and local government web resources and services.